Location: Austin
(30.3000°N, 97.7500°W)
Time: 10:52:31
(UTC-05:00)

CZ-4B DEB - Pass Details

Date: 05 September 2024
Orbit: 836 x 857 km, 99.0° (Epoch: 10 September)

Event Time Altitude Azimuth Distance (km) Brightness Sun altitude
Exits shadow 20:48:12 - 157° (SSE) 3,107 6.8 -13.5°
Reaches altitude 10° 20:49:48 10° 155° (SSE) 2,480 6.3 -13.9°
Maximum altitude 20:55:15 65° 75° (ENE) 936 4.2 -15.0°
Drops below altitude 10° 21:00:42 10° 354° (N) 2,485 6.9 -16.1°
Sets 21:03:05 0° 351° (N) 3,421 7.7 -16.6°
